PST,Max TemperatureF,Mean TemperatureF,Min TemperatureF,Max Dew PointF,MeanDew PointF,Min DewpointF,Max Humidity, Mean Humidity, Min Humidity, Max Sea Level PressureIn, Mean Sea Level PressureIn, Min Sea Level PressureIn, Max VisibilityMiles, Mean VisibilityMiles, Min VisibilityMiles, Max Wind SpeedMPH, Mean Wind SpeedMPH, Max Gust SpeedMPH,PrecipitationIn, CloudCover, Events, WindDirDegrees
2013-1-1,56,45,34,35,33,31,92,68,43,30.26,30.23,30.18,10,10,7,13,3,18,0.00,1,,39
2013-1-2,62,47,32,37,32,29,82,57,32,30.24,30.18,30.12,10,10,10,10,3,13,0.00,0,,65
2013-1-3,60,46,32,43,34,30,89,63,36,30.26,30.20,30.16,10,10,10,8,3,18,0.00,0,,284
2013-1-4,64,49,34,44,37,32,85,59,32,30.27,30.23,30.18,10,10,9,78,4,81,0.00,1,,323
2013-1-5,56,50,44,50,45,40,100,83,66,30.29,30.19,30.10,10,7,2,14,3,17,0.33,7,Rain,226
2013-1-6,53,45,37,48,45,36,100,86,71,30.21,30.13,30.07,10,9,2,9,3,28,0.24,7,Rain,55
2013-1-7,56,46,36,45,40,35,96,79,61,30.27,30.20,30.16,10,10,10,8,3,10,0.00,0,,317
2013-1-8,63,51,39,48,43,39,100,80,60,30.23,30.17,30.12,10,10,6,8,2,9,0.00,0,,1
2013-1-9,55,48,40,48,43,35,96,81,66,30.15,30.07,30.02,10,10,8,17,3,24,0.01,3,Rain,249
2013-1-10,52,43,34,37,33,29,92,67,42,30.21,30.13,30.08,10,10,10,15,4,20,T,1,,296
2013-1-11,52,42,32,37,33,29,92,71,50,30.27,30.20,30.14,10,10,10,10,4,16,0.01,2,,306
2013-1-12,51,43,34,35,32,27,92,67,42,30.27,30.19,30.15,10,10,10,12,3,14,0.00,1,,307
2013-1-13,51,39,27,33,24,14,85,56,26,30.27,30.21,30.16,10,10,10,8,2,10,0.00,0,,314
2013-1-14,51,38,25,28,22,17,70,49,28,30.42,30.35,30.23,10,10,10,9,4,12,0.00,0,,309
2013-1-15,56,43,29,31,27,24,78,54,30,30.48,30.44,30.40,10,10,10,9,2,10,0.00,0,,311
2013-1-16,62,47,32,36,31,26,85,57,29,30.43,30.34,30.25,10,10,9,7,2,25,0.00,0,,304
2013-1-17,70,53,35,39,34,30,76,52,28,30.24,30.18,30.12,10,10,10,14,3,46,0.00,0,,72
2013-1-18,71,53,35,39,34,30,85,54,22,30.21,30.16,30.12,10,10,10,10,2,14,0.00,0,,53
2013-1-19,73,56,39,41,35,31,76,49,22,30.22,30.17,30.14,10,10,10,7,2,9,0.00,0,,73
2013-1-20,74,56,38,36,34,30,79,50,20,30.20,30.16,30.10,10,10,10,9,3,12,0.00,0,,59
2013-1-21,72,55,37,37,32,27,67,43,19,30.17,30.11,30.06,10,10,10,8,4,10,0.00,0,,25
2013-1-22,71,54,37,36,32,28,76,49,22,30.10,30.06,30.01,10,10,10,8,3,20,0.00,0,,337
2013-1-23,62,55,47,47,40,35,83,65,47,30.09,30.04,29.99,10,10,9,8,3,15,0.01,5,Rain,311
2013-1-24,58,54,49,54,51,47,100,90,80,30.19,30.13,30.05,10,7,3,7,1,21,0.08,8,Rain,94
2013-1-25,69,59,49,56,52,48,96,80,63,30.19,30.12,30.04,10,7,1,10,2,13,0.00,4,,167
2013-1-26,63,52,41,52,47,36,100,75,49,30.11,30.03,29.99,10,6,0,13,4,18,0.00,5,Fog,279
2013-1-27,55,46,36,39,35,28,92,67,41,30.19,30.14,30.10,10,10,10,12,4,15,0.00,0,,295
2013-1-28,60,47,34,40,36,30,92,63,33,30.30,30.24,30.19,10,10,10,13,3,21,0.00,0,,300
2013-1-29,55,46,37,43,40,36,92,77,61,30.36,30.31,30.27,10,10,10,8,4,20,0.00,0,,300
2013-1-30,64,51,37,45,40,36,93,70,46,30.37,30.30,30.27,10,10,10,7,2,17,0.00,0,,302
2013-1-31,69,54,38,45,41,36,93,65,37,30.28,30.23,30.17,10,10,10,8,2,13,0.00,0,,282